Time,TemperatureF,DewpointF,PressureIn,WindDirection,WindDirectionDegrees,WindSpeedMPH,WindSpeedGustMPH,Humidity,HourlyPrecipIn,Conditions,Clouds,dailyrainin,SoftwareType,DateUTC
2013-04-08 00:06:00,68.2,67.6,29.75,West,270,5.3,-999.0,98,-99.99,,,0.00,Acu-Link.com,2013-04-08 05:06:00,
2013-04-08 00:22:00,68.2,67.6,29.74,South,180,3.7,-999.0,98,-99.99,,,0.00,Acu-Link.com,2013-04-08 05:22:00,
2013-04-08 00:37:00,68.0,67.4,29.74,South,180,4.7,-999.0,98,-99.99,,,0.00,Acu-Link.com,2013-04-08 05:37:00,
2013-04-08 00:52:00,68.0,67.4,29.74,SE,135,2.2,-999.0,98,-99.99,,,0.00,Acu-Link.com,2013-04-08 05:52:00,
2013-04-08 01:07:00,68.0,67.4,29.73,South,180,2.2,-999.0,98,-99.99,,,0.00,Acu-Link.com,2013-04-08 06:07:00,
2013-04-08 01:22:00,68.2,67.6,29.73,West,270,4.7,-999.0,98,-99.99,,,0.00,Acu-Link.com,2013-04-08 06:22:00,
2013-04-08 01:37:00,68.2,67.6,29.73,ESE,112,7.3,-999.0,98,-99.99,,,0.00,Acu-Link.com,2013-04-08 06:37:00,
2013-04-08 01:52:00,68.2,67.6,29.73,ESE,112,5.8,-999.0,98,-99.99,,,0.00,Acu-Link.com,2013-04-08 06:52:00,
2013-04-08 02:07:00,68.4,67.8,29.72,South,180,4.2,-999.0,98,-99.99,,,0.00,Acu-Link.com,2013-04-08 07:07:00,
2013-04-08 02:22:00,68.4,67.8,29.72,South,180,2.7,-999.0,98,-99.99,,,0.00,Acu-Link.com,2013-04-08 07:22:00,
2013-04-08 02:38:00,68.4,67.8,29.71,South,180,2.7,-999.0,98,-99.99,,,0.00,Acu-Link.com,2013-04-08 07:38:00,
2013-04-08 02:53:00,68.2,67.6,29.71,ENE,67,2.7,-999.0,98,-99.99,,,0.00,Acu-Link.com,2013-04-08 07:53:00,
2013-04-08 03:09:00,68.0,67.4,29.70,SSW,202,6.3,-999.0,98,-99.99,,,0.00,Acu-Link.com,2013-04-08 08:09:00,
2013-04-08 03:40:00,67.6,67.0,29.69,South,180,2.7,-999.0,98,-99.99,,,0.00,Acu-Link.com,2013-04-08 08:40:00,
2013-04-08 03:55:00,67.1,66.5,29.70,SSW,202,1.7,-999.0,98,-99.99,,,0.00,Acu-Link.com,2013-04-08 08:55:00,
2013-04-08 04:10:00,67.1,66.5,29.69,SSE,157,3.2,-999.0,98,-99.99,,,0.00,Acu-Link.com,2013-04-08 09:10:00,
2013-04-08 04:25:00,67.6,67.0,29.69,South,180,4.7,-999.0,98,-99.99,,,0.00,Acu-Link.com,2013-04-08 09:25:00,
2013-04-08 04:40:00,67.8,67.2,29.69,South,180,2.7,-999.0,98,-99.99,,,0.00,Acu-Link.com,2013-04-08 09:40:00,
2013-04-08 04:55:00,68.0,67.4,29.69,ESE,112,6.8,-999.0,98,-99.99,,,0.00,Acu-Link.com,2013-04-08 09:55:00,
2013-04-08 05:10:00,67.6,67.0,29.68,South,180,6.3,-999.0,98,-99.99,,,0.00,Acu-Link.com,2013-04-08 10:10:00,
2013-04-08 05:26:00,67.1,66.5,29.68,SE,135,4.7,-999.0,98,-99.99,,,0.00,Acu-Link.com,2013-04-08 10:26:00,
2013-04-08 06:11:00,66.7,66.1,29.68,SSW,202,4.2,-999.0,98,-99.99,,,0.00,Acu-Link.com,2013-04-08 11:11:00,
2013-04-08 06:26:00,66.7,66.1,29.68,ESE,112,3.2,-999.0,98,-99.99,,,0.00,Acu-Link.com,2013-04-08 11:26:00,
2013-04-08 06:41:00,66.4,65.8,29.69,SSW,202,2.2,-999.0,98,-99.99,,,0.00,Acu-Link.com,2013-04-08 11:41:00,
2013-04-08 06:56:00,66.6,66.0,29.69,SSE,157,3.2,-999.0,98,-99.99,,,0.00,Acu-Link.com,2013-04-08 11:56:00,
2013-04-08 07:11:00,66.6,66.0,29.70,ESE,112,5.3,-999.0,98,-99.99,,,0.00,Acu-Link.com,2013-04-08 12:11:00,
2013-04-08 07:27:00,66.9,66.3,29.69,SSE,157,2.2,-999.0,98,-99.99,,,0.00,Acu-Link.com,2013-04-08 12:27:00,
2013-04-08 07:42:00,67.6,67.0,29.70,ESE,112,2.7,-999.0,98,-99.99,,,0.00,Acu-Link.com,2013-04-08 12:42:00,
2013-04-08 07:57:00,69.3,68.7,29.70,WNW,292,1.7,-999.0,98,-99.99,,,0.00,Acu-Link.com,2013-04-08 12:57:00,
2013-04-08 08:12:00,70.9,70.3,29.70,SE,135,4.2,-999.0,98,-99.99,,,0.00,Acu-Link.com,2013-04-08 13:12:00,
2013-04-08 08:27:00,71.8,71.2,29.69,South,180,2.7,-999.0,98,-99.99,,,0.00,Acu-Link.com,2013-04-08 13:27:00,
2013-04-08 08:42:00,71.8,71.2,29.70,South,180,3.7,-999.0,98,-99.99,,,0.00,Acu-Link.com,2013-04-08 13:42:00,
2013-04-08 08:57:00,72.9,72.3,29.70,ENE,67,4.7,-999.0,98,-99.99,,,0.00,Acu-Link.com,2013-04-08 13:57:00,
2013-04-08 09:12:00,73.2,72.6,29.69,SSW,202,8.3,-999.0,98,-99.99,,,0.00,Acu-Link.com,2013-04-08 14:12:00,
2013-04-08 09:27:00,74.5,73.9,29.70,SSE,157,5.3,-999.0,98,-99.99,,,0.00,Acu-Link.com,2013-04-08 14:27:00,
2013-04-08 09:42:00,74.3,73.1,29.70,NE,45,3.7,-999.0,96,-99.99,,,0.00,Acu-Link.com,2013-04-08 14:42:00,
2013-04-08 09:58:00,74.7,72.9,29.70,SSE,157,2.7,-999.0,94,-99.99,,,0.00,Acu-Link.com,2013-04-08 14:58:00,
2013-04-08 10:13:00,73.9,72.1,29.70,SW,225,3.7,-999.0,94,-99.99,,,0.00,Acu-Link.com,2013-04-08 15:13:00,
2013-04-08 10:28:00,74.8,72.3,29.70,SSE,157,4.7,-999.0,92,-99.99,,,0.00,Acu-Link.com,2013-04-08 15:28:00,
2013-04-08 10:43:00,75.0,71.9,29.72,SSW,202,7.8,-999.0,90,-99.99,,,0.00,Acu-Link.com,2013-04-08 15:43:00,
2013-04-08 11:44:00,79.0,73.0,29.72,SW,225,4.2,-999.0,82,-99.99,,,0.00,Acu-Link.com,2013-04-08 16:44:00,
2013-04-08 11:59:00,77.4,71.5,29.72,SSW,202,2.7,-999.0,82,-99.99,,,0.00,Acu-Link.com,2013-04-08 16:59:00,
2013-04-08 12:14:00,77.2,71.3,29.71,SSW,202,4.7,-999.0,82,-99.99,,,0.00,Acu-Link.com,2013-04-08 17:14:00,
2013-04-08 12:29:00,77.5,71.6,29.72,SSW,202,4.2,-999.0,82,-99.99,,,0.00,Acu-Link.com,2013-04-08 17:29:00,
2013-04-08 12:45:00,79.9,72.0,29.71,SSW,202,4.7,-999.0,77,-99.99,,,0.00,Acu-Link.com,2013-04-08 17:45:00,
2013-04-08 13:15:00,79.3,71.4,29.72,South,180,5.3,-999.0,77,-99.99,,,0.00,Acu-Link.com,2013-04-08 18:15:00,
2013-04-08 13:30:00,78.6,71.1,29.71,SSE,157,8.9,-999.0,78,-99.99,,,0.00,Acu-Link.com,2013-04-08 18:30:00,
2013-04-08 13:45:00,79.7,71.8,29.72,SW,225,8.9,-999.0,77,-99.99,,,0.00,Acu-Link.com,2013-04-08 18:45:00,
2013-04-08 14:00:00,79.2,71.0,29.71,South,180,8.9,-999.0,76,-99.99,,,0.00,Acu-Link.com,2013-04-08 19:00:00,
2013-04-08 14:15:00,79.3,71.4,29.71,South,180,6.8,-999.0,77,-99.99,,,0.00,Acu-Link.com,2013-04-08 19:15:00,
2013-04-08 14:30:00,79.0,71.2,29.70,SW,225,7.3,-999.0,77,-99.99,,,0.00,Acu-Link.com,2013-04-08 19:30:00,
2013-04-08 14:45:00,80.1,71.8,29.70,SSE,157,10.4,-999.0,76,-99.99,,,0.00,Acu-Link.com,2013-04-08 19:45:00,
2013-04-08 15:00:00,80.2,71.1,29.68,South,180,6.3,-999.0,74,-99.99,,,0.00,Acu-Link.com,2013-04-08 20:00:00,
2013-04-08 15:16:00,77.7,70.3,29.69,SSW,202,12.5,-999.0,78,-99.99,,,0.00,Acu-Link.com,2013-04-08 20:16:00,
2013-04-08 15:31:00,77.4,70.0,29.68,South,180,12.5,-999.0,78,-99.99,,,0.00,Acu-Link.com,2013-04-08 20:31:00,
2013-04-08 15:46:00,79.2,70.6,29.67,SSW,202,7.3,-999.0,75,-99.99,,,0.00,Acu-Link.com,2013-04-08 20:46:00,
2013-04-08 16:16:00,77.7,69.9,29.66,SE,135,9.9,-999.0,77,-99.99,,,0.00,Acu-Link.com,2013-04-08 21:16:00,
2013-04-08 16:31:00,76.8,70.5,29.66,ESE,112,3.2,-999.0,81,-99.99,,,0.00,Acu-Link.com,2013-04-08 21:31:00,
2013-04-08 17:01:00,77.5,70.5,29.66,SE,135,4.2,-999.0,79,-99.99,,,0.00,Acu-Link.com,2013-04-08 22:01:00,
2013-04-08 17:32:00,76.8,70.1,29.67,SSE,157,8.9,-999.0,80,-99.99,,,0.00,Acu-Link.com,2013-04-08 22:32:00,
2013-04-08 18:02:00,75.6,70.8,29.68,South,180,5.3,-999.0,85,-99.99,,,0.00,Acu-Link.com,2013-04-08 23:02:00,
2013-04-08 18:17:00,76.1,71.3,29.68,SE,135,9.4,-999.0,85,-99.99,,,0.00,Acu-Link.com,2013-04-08 23:17:00,
2013-04-08 18:32:00,76.1,71.3,29.67,SSE,157,3.2,-999.0,85,-99.99,,,0.00,Acu-Link.com,2013-04-08 23:32:00,
2013-04-08 18:47:00,73.9,70.8,29.67,SSE,157,4.2,-999.0,90,-99.99,,,0.00,Acu-Link.com,2013-04-08 23:47:00,
2013-04-08 19:02:00,73.2,71.4,29.68,ESE,112,2.7,-999.0,94,-99.99,,,0.00,Acu-Link.com,2013-04-09 00:02:00,
2013-04-08 19:17:00,72.7,72.1,29.66,ESE,112,7.8,-999.0,98,-99.99,,,0.00,Acu-Link.com,2013-04-09 00:17:00,
2013-04-08 19:33:00,72.3,71.7,29.67,ESE,112,5.8,-999.0,98,-99.99,,,0.00,Acu-Link.com,2013-04-09 00:33:00,
2013-04-08 19:48:00,72.0,71.4,29.67,ESE,112,4.2,-999.0,98,-99.99,,,0.00,Acu-Link.com,2013-04-09 00:48:00,
2013-04-08 20:03:00,71.6,71.0,29.67,SSE,157,7.3,-999.0,98,-99.99,,,0.00,Acu-Link.com,2013-04-09 01:03:00,
2013-04-08 20:18:00,71.8,71.2,29.67,SSE,157,4.2,-999.0,98,-99.99,,,0.00,Acu-Link.com,2013-04-09 01:18:00,
2013-04-08 21:04:00,71.4,70.8,29.68,East,90,4.7,-999.0,98,-99.99,,,0.00,Acu-Link.com,2013-04-09 02:04:00,
2013-04-08 21:19:00,71.4,70.8,29.70,SE,135,4.7,-999.0,98,-99.99,,,0.00,Acu-Link.com,2013-04-09 02:19:00,
2013-04-08 21:49:00,71.1,70.5,29.69,SE,135,5.3,-999.0,98,-99.99,,,0.00,Acu-Link.com,2013-04-09 02:49:00,
2013-04-08 22:04:00,70.9,70.3,29.68,NE,45,2.7,-999.0,98,-99.99,,,0.00,Acu-Link.com,2013-04-09 03:04:00,
2013-04-08 22:19:00,70.7,70.1,29.67,ESE,112,4.7,-999.0,98,-99.99,,,0.00,Acu-Link.com,2013-04-09 03:19:00,
2013-04-08 22:34:00,70.7,70.1,29.67,SE,135,4.7,-999.0,98,-99.99,,,0.00,Acu-Link.com,2013-04-09 03:34:00,
2013-04-08 22:50:00,70.7,70.1,29.68,South,180,3.2,-999.0,98,-99.99,,,0.00,Acu-Link.com,2013-04-09 03:50:00,
2013-04-08 23:05:00,70.7,70.1,29.68,ESE,112,6.8,-999.0,98,-99.99,,,0.00,Acu-Link.com,2013-04-09 04:05:00,
2013-04-08 23:20:00,70.7,70.1,29.68,ESE,112,7.3,-999.0,98,-99.99,,,0.00,Acu-Link.com,2013-04-09 04:20:00,
2013-04-08 23:35:00,70.7,70.1,29.67,SSE,157,5.3,-999.0,98,-99.99,,,0.00,Acu-Link.com,2013-04-09 04:35:00,
2013-04-08 23:50:00,70.5,69.9,29.68,ESE,112,4.2,-999.0,98,-99.99,,,0.00,Acu-Link.com,2013-04-09 04:50:00,